Year,Month,Day,Hour,Minute,Value (Times are PST for temperature in C)
2015,04,15,00,00,6.50
2015,04,15,00,01,6.40
2015,04,15,00,02,6.40
2015,04,15,00,03,6.40
2015,04,15,00,04,6.40
2015,04,15,00,05,6.40
2015,04,15,00,06,6.40
2015,04,15,00,07,6.40
2015,04,15,00,08,6.40
2015,04,15,00,09,6.40
2015,04,15,00,10,6.40
2015,04,15,00,11,6.40
2015,04,15,00,12,6.40
2015,04,15,00,13,6.40
2015,04,15,00,14,6.40
2015,04,15,00,15,6.40
2015,04,15,00,16,6.30
2015,04,15,00,17,6.30
2015,04,15,00,18,6.30
2015,04,15,00,19,6.20
2015,04,15,00,20,6.20
2015,04,15,00,21,6.20
2015,04,15,00,22,6.20
2015,04,15,00,23,6.10
2015,04,15,00,24,6.00
2015,04,15,00,25,6.00
2015,04,15,00,26,5.90
2015,04,15,00,27,5.90
2015,04,15,00,28,5.80
2015,04,15,00,29,5.70
2015,04,15,00,30,5.70
2015,04,15,00,31,5.70
2015,04,15,00,32,5.70
2015,04,15,00,33,5.60
2015,04,15,00,34,5.60
2015,04,15,00,35,5.50
2015,04,15,00,36,5.50
2015,04,15,00,37,5.40
2015,04,15,00,38,5.40
2015,04,15,00,39,5.40
2015,04,15,00,40,5.30
2015,04,15,00,41,5.30
2015,04,15,00,42,5.30
2015,04,15,00,43,5.30
2015,04,15,00,44,5.20
2015,04,15,00,45,5.20
2015,04,15,00,46,5.20
2015,04,15,00,47,5.10
2015,04,15,00,48,5.10
2015,04,15,00,49,5.10
2015,04,15,00,50,5.10
2015,04,15,00,51,5.10
2015,04,15,00,52,5.20
2015,04,15,00,53,5.20
2015,04,15,00,54,5.30
2015,04,15,00,55,5.30
2015,04,15,00,56,5.30
2015,04,15,00,57,5.30
2015,04,15,00,58,5.40
2015,04,15,00,59,5.40
2015,04,15,01,00,5.40
2015,04,15,01,01,5.50
2015,04,15,01,02,5.50
2015,04,15,01,03,5.50
2015,04,15,01,04,5.50
2015,04,15,01,05,5.60
2015,04,15,01,06,5.60
2015,04,15,01,07,5.60
2015,04,15,01,08,5.60
2015,04,15,01,09,5.60
2015,04,15,01,10,5.60
2015,04,15,01,11,5.60
2015,04,15,01,12,5.50
2015,04,15,01,13,5.50
2015,04,15,01,14,5.50
2015,04,15,01,15,5.40
2015,04,15,01,16,5.30
2015,04,15,01,17,5.30
2015,04,15,01,18,5.30
2015,04,15,01,19,5.30
2015,04,15,01,20,5.30
2015,04,15,01,21,5.30
2015,04,15,01,22,5.30
2015,04,15,01,23,5.30
2015,04,15,01,24,5.20
2015,04,15,01,25,5.20
2015,04,15,01,26,5.10
2015,04,15,01,27,5.10
2015,04,15,01,28,5.10
2015,04,15,01,29,5.10
2015,04,15,01,30,4.90
2015,04,15,01,31,4.90
2015,04,15,01,32,4.80
2015,04,15,01,33,4.80
2015,04,15,01,34,4.70
2015,04,15,01,35,4.60
2015,04,15,01,36,4.60
2015,04,15,01,37,4.60
2015,04,15,01,38,4.60
2015,04,15,01,39,4.60
2015,04,15,01,40,4.60
2015,04,15,01,41,4.60
2015,04,15,01,42,4.70
2015,04,15,01,43,4.70
2015,04,15,01,44,4.70
2015,04,15,01,45,4.80
2015,04,15,01,46,4.90
2015,04,15,01,47,4.90
2015,04,15,01,48,4.90
2015,04,15,01,49,5.00
2015,04,15,01,50,5.10
2015,04,15,01,51,5.10
2015,04,15,01,52,5.10
2015,04,15,01,53,5.10
2015,04,15,01,54,5.10
2015,04,15,01,55,5.10
2015,04,15,01,56,5.10
2015,04,15,01,57,5.10
2015,04,15,01,58,5.10
2015,04,15,01,59,5.10
2015,04,15,02,00,5.10
2015,04,15,02,01,5.10
2015,04,15,02,02,4.90
2015,04,15,02,03,4.90
2015,04,15,02,04,4.90
2015,04,15,02,05,4.90
2015,04,15,02,06,5.00
2015,04,15,02,07,5.10
2015,04,15,02,08,5.10
2015,04,15,02,09,5.10
2015,04,15,02,10,5.10
2015,04,15,02,11,5.10
2015,04,15,02,12,5.10
2015,04,15,02,13,5.10
2015,04,15,02,14,5.00
2015,04,15,02,15,4.90
2015,04,15,02,16,4.90
2015,04,15,02,17,4.90
2015,04,15,02,18,4.80
2015,04,15,02,19,4.80
2015,04,15,02,20,4.70
2015,04,15,02,21,4.60
2015,04,15,02,22,4.60
2015,04,15,02,23,4.60
2015,04,15,02,24,4.60
2015,04,15,02,25,4.50
2015,04,15,02,26,4.50
2015,04,15,02,27,4.50
2015,04,15,02,28,4.40
2015,04,15,02,29,4.40
2015,04,15,02,30,4.40
2015,04,15,02,31,4.30
2015,04,15,02,32,4.30
2015,04,15,02,33,4.20
2015,04,15,02,34,4.20
2015,04,15,02,35,4.20
2015,04,15,02,36,4.20
2015,04,15,02,37,4.10
2015,04,15,02,38,4.10
2015,04,15,02,39,4.00
2015,04,15,02,40,4.00
2015,04,15,02,41,3.90
2015,04,15,02,42,3.90
2015,04,15,02,43,3.80
2015,04,15,02,44,3.80
2015,04,15,02,45,3.80
2015,04,15,02,46,3.80
2015,04,15,02,47,3.70
2015,04,15,02,48,3.70
2015,04,15,02,49,3.70
2015,04,15,02,50,3.60
2015,04,15,02,51,3.60
2015,04,15,02,52,3.60
2015,04,15,02,53,3.60
2015,04,15,02,54,3.50
2015,04,15,02,55,3.50
2015,04,15,02,56,3.50
2015,04,15,02,57,3.40
2015,04,15,02,58,3.40
2015,04,15,02,59,3.40
2015,04,15,03,00,3.40
2015,04,15,03,01,3.30
2015,04,15,03,02,3.30
2015,04,15,03,03,3.30
2015,04,15,03,04,3.30
2015,04,15,03,05,3.30
2015,04,15,03,06,3.30
2015,04,15,03,07,3.30
2015,04,15,03,08,3.30
2015,04,15,03,09,3.30
2015,04,15,03,10,3.30
2015,04,15,03,11,3.30
2015,04,15,03,12,3.30
2015,04,15,03,13,3.30
2015,04,15,03,14,3.20
2015,04,15,03,15,3.20
2015,04,15,03,16,3.10
2015,04,15,03,17,3.10
2015,04,15,03,18,3.10
2015,04,15,03,19,3.10
2015,04,15,03,20,3.00
2015,04,15,03,21,2.90
2015,04,15,03,22,2.90
2015,04,15,03,23,2.90
2015,04,15,03,24,2.90
2015,04,15,03,25,2.90
2015,04,15,03,26,2.80
2015,04,15,03,27,2.80
2015,04,15,03,28,2.80
2015,04,15,03,29,2.70
2015,04,15,03,30,2.70
2015,04,15,03,31,2.70
2015,04,15,03,32,2.70
2015,04,15,03,33,2.70
2015,04,15,03,34,2.70
2015,04,15,03,35,2.70
2015,04,15,03,36,2.70
2015,04,15,03,37,2.70
2015,04,15,03,38,2.70
2015,04,15,03,39,2.60
2015,04,15,03,40,2.60
2015,04,15,03,41,2.60
2015,04,15,03,42,2.60
2015,04,15,03,43,2.60
2015,04,15,03,44,2.60
2015,04,15,03,45,2.50
2015,04,15,03,46,2.50
2015,04,15,03,47,2.50
2015,04,15,03,48,2.50
2015,04,15,03,49,2.50
2015,04,15,03,50,2.50
2015,04,15,03,51,2.50
2015,04,15,03,52,2.50
2015,04,15,03,53,2.50
2015,04,15,03,54,2.50
2015,04,15,03,55,2.50
2015,04,15,03,56,2.50
2015,04,15,03,57,2.50
2015,04,15,03,58,2.50
2015,04,15,03,59,2.50
2015,04,15,04,00,2.50
2015,04,15,04,01,2.50
2015,04,15,04,02,2.50
2015,04,15,04,03,2.50
2015,04,15,04,04,2.50
2015,04,15,04,05,2.50
2015,04,15,04,06,2.50
2015,04,15,04,07,2.50
2015,04,15,04,08,2.40
2015,04,15,04,09,2.40
2015,04,15,04,10,2.40
2015,04,15,04,11,2.40
2015,04,15,04,12,2.30
2015,04,15,04,13,2.30
2015,04,15,04,14,2.30
2015,04,15,04,15,2.20
2015,04,15,04,16,2.20
2015,04,15,04,17,2.20
2015,04,15,04,18,2.20
2015,04,15,04,19,2.20
2015,04,15,04,20,2.20
2015,04,15,04,21,2.20
2015,04,15,04,22,2.20
2015,04,15,04,23,2.20
2015,04,15,04,24,2.20
2015,04,15,04,25,2.20
2015,04,15,04,26,2.20
2015,04,15,04,27,2.20
2015,04,15,04,28,2.20
2015,04,15,04,29,2.20
2015,04,15,04,30,2.20
2015,04,15,04,31,2.20
2015,04,15,04,32,2.20
2015,04,15,04,33,2.20
2015,04,15,04,34,2.20
2015,04,15,04,35,2.20
2015,04,15,04,36,2.10
2015,04,15,04,37,2.10
2015,04,15,04,38,2.10
2015,04,15,04,39,2.10
2015,04,15,04,40,2.10
2015,04,15,04,41,2.10
2015,04,15,04,42,2.10
2015,04,15,04,43,2.10
2015,04,15,04,44,2.10
2015,04,15,04,45,2.10
2015,04,15,04,46,2.10
2015,04,15,04,47,2.10
2015,04,15,04,48,2.10
2015,04,15,04,49,2.10
2015,04,15,04,50,2.10
2015,04,15,04,51,2.10
2015,04,15,04,52,2.10
2015,04,15,04,53,2.10
2015,04,15,04,54,2.10
2015,04,15,04,55,2.10
2015,04,15,04,56,2.10
2015,04,15,04,57,2.10
2015,04,15,04,58,2.10
2015,04,15,04,59,2.10
2015,04,15,05,00,2.10
2015,04,15,05,01,2.10
2015,04,15,05,02,2.10
2015,04,15,05,03,2.00
2015,04,15,05,04,2.00
2015,04,15,05,05,2.00
2015,04,15,05,06,2.00
2015,04,15,05,07,2.00
2015,04,15,05,08,2.00
2015,04,15,05,09,2.00
2015,04,15,05,10,1.90
2015,04,15,05,11,1.90
2015,04,15,05,12,1.90
2015,04,15,05,13,1.90
2015,04,15,05,14,1.80
2015,04,15,05,15,1.80
2015,04,15,05,16,1.80
2015,04,15,05,17,1.80
2015,04,15,05,18,1.80
2015,04,15,05,19,1.80
2015,04,15,05,20,1.90
2015,04,15,05,21,1.90
2015,04,15,05,22,2.00
2015,04,15,05,23,2.00
2015,04,15,05,24,2.00
2015,04,15,05,25,2.00
2015,04,15,05,26,2.00
2015,04,15,05,27,2.00
2015,04,15,05,28,2.00
2015,04,15,05,29,2.00
2015,04,15,05,30,2.00
2015,04,15,05,31,2.00
2015,04,15,05,32,1.90
2015,04,15,05,33,1.90
2015,04,15,05,34,1.90
2015,04,15,05,35,1.90
2015,04,15,05,36,1.90
2015,04,15,05,37,1.90
2015,04,15,05,38,1.90
2015,04,15,05,39,1.80
2015,04,15,05,40,1.80
2015,04,15,05,41,1.80
2015,04,15,05,42,1.80
2015,04,15,05,43,1.80
2015,04,15,05,44,1.80
2015,04,15,05,45,1.80
2015,04,15,05,46,1.80
2015,04,15,05,47,1.80
2015,04,15,05,48,1.80
2015,04,15,05,49,1.80
2015,04,15,05,50,1.80
2015,04,15,05,51,1.80
2015,04,15,05,52,1.80
2015,04,15,05,53,1.90
2015,04,15,05,54,1.90
2015,04,15,05,55,1.90
2015,04,15,05,56,1.90
2015,04,15,05,57,2.00
2015,04,15,05,58,2.00
2015,04,15,05,59,2.00
2015,04,15,06,00,2.00
2015,04,15,06,01,2.00
2015,04,15,06,02,2.00
2015,04,15,06,03,1.90
2015,04,15,06,04,1.90
2015,04,15,06,05,1.90
2015,04,15,06,06,1.90
2015,04,15,06,07,1.90
2015,04,15,06,08,1.90
2015,04,15,06,09,1.80
2015,04,15,06,10,1.80
2015,04,15,06,11,1.70
2015,04,15,06,12,1.70
2015,04,15,06,13,1.70
2015,04,15,06,14,1.70
2015,04,15,06,15,1.70
2015,04,15,06,16,1.70
2015,04,15,06,17,1.70
2015,04,15,06,18,1.70
2015,04,15,06,19,1.70
2015,04,15,06,20,1.70
2015,04,15,06,21,1.70
2015,04,15,06,22,1.70
2015,04,15,06,23,1.70
2015,04,15,06,24,1.70
2015,04,15,06,25,1.70
2015,04,15,06,26,1.80
2015,04,15,06,27,1.80
2015,04,15,06,28,1.80
2015,04,15,06,29,1.80
2015,04,15,06,30,1.70
2015,04,15,06,31,1.70
2015,04,15,06,32,1.70
2015,04,15,06,33,1.70
2015,04,15,06,34,1.70
2015,04,15,06,35,1.70
2015,04,15,06,36,1.70
2015,04,15,06,37,1.80
2015,04,15,06,38,1.80
2015,04,15,06,39,1.80
2015,04,15,06,40,1.80
2015,04,15,06,41,1.80
2015,04,15,06,42,1.90
2015,04,15,06,43,1.90
2015,04,15,06,44,1.90
2015,04,15,06,45,1.90
2015,04,15,06,46,2.00
2015,04,15,06,47,2.00
2015,04,15,06,48,2.00
2015,04,15,06,49,2.00
2015,04,15,06,50,2.00
2015,04,15,06,51,2.10
2015,04,15,06,52,2.10
2015,04,15,06,53,2.10
2015,04,15,06,54,2.20
2015,04,15,06,55,2.20
2015,04,15,06,56,2.30
2015,04,15,06,57,2.40
2015,04,15,06,58,2.40
2015,04,15,06,59,2.50
2015,04,15,07,00,2.50
2015,04,15,07,01,2.60
2015,04,15,07,02,2.60
2015,04,15,07,03,2.70
2015,04,15,07,04,2.70
2015,04,15,07,05,2.80
2015,04,15,07,06,2.90
2015,04,15,07,07,2.90
2015,04,15,07,08,3.00
2015,04,15,07,09,3.10
2015,04,15,07,10,3.20
2015,04,15,07,11,3.20
2015,04,15,07,12,3.30
2015,04,15,07,13,3.40
2015,04,15,07,14,3.50
2015,04,15,07,15,3.60
2015,04,15,07,16,3.60
2015,04,15,07,17,3.70
2015,04,15,07,18,3.80
2015,04,15,07,19,3.90
2015,04,15,07,20,4.00
2015,04,15,07,21,4.00
2015,04,15,07,22,4.10
2015,04,15,07,23,4.10
2015,04,15,07,24,4.20
2015,04,15,07,25,4.20
2015,04,15,07,26,4.20
2015,04,15,07,27,4.30
2015,04,15,07,28,4.40
2015,04,15,07,29,4.50
2015,04,15,07,30,4.60
2015,04,15,07,31,4.60
2015,04,15,07,32,4.60
2015,04,15,07,33,4.70
2015,04,15,07,34,4.80
2015,04,15,07,35,4.80
2015,04,15,07,36,4.90
2015,04,15,07,37,4.90
2015,04,15,07,38,4.90
2015,04,15,07,39,5.00
2015,04,15,07,40,5.10
2015,04,15,07,41,5.20
2015,04,15,07,42,5.30
2015,04,15,07,43,5.40
2015,04,15,07,44,5.50
2015,04,15,07,45,5.60
2015,04,15,07,46,5.70
2015,04,15,07,47,5.70
2015,04,15,07,48,5.70
2015,04,15,07,49,5.70
2015,04,15,07,50,5.70
2015,04,15,07,51,5.70
2015,04,15,07,52,5.80
2015,04,15,07,53,5.80
2015,04,15,07,54,5.90
2015,04,15,07,55,5.90
2015,04,15,07,56,6.00
2015,04,15,07,57,6.00
2015,04,15,07,58,6.10
2015,04,15,07,59,6.20
2015,04,15,08,00,6.20
2015,04,15,08,01,6.20
2015,04,15,08,02,6.30
2015,04,15,08,03,6.30
2015,04,15,08,04,6.40
2015,04,15,08,05,6.40
2015,04,15,08,06,6.40
2015,04,15,08,07,6.40
2015,04,15,08,08,6.50
2015,04,15,08,09,6.60
2015,04,15,08,10,6.60
2015,04,15,08,11,6.70
2015,04,15,08,12,6.70
2015,04,15,08,13,6.80
2015,04,15,08,14,6.80
2015,04,15,08,15,6.80
2015,04,15,08,16,6.90
2015,04,15,08,17,7.00
2015,04,15,08,18,7.10
2015,04,15,08,19,7.20
2015,04,15,08,20,7.30
2015,04,15,08,21,7.30
2015,04,15,08,22,7.40
2015,04,15,08,23,7.50
2015,04,15,08,24,7.50
2015,04,15,08,25,7.60
2015,04,15,08,26,7.70
2015,04,15,08,27,7.70
2015,04,15,08,28,7.80
2015,04,15,08,29,7.80
2015,04,15,08,30,7.80
2015,04,15,08,31,7.80
2015,04,15,08,32,7.90
2015,04,15,08,33,7.90
2015,04,15,08,34,8.00
2015,04,15,08,35,8.00
2015,04,15,08,36,8.00
2015,04,15,08,37,8.10
2015,04,15,08,38,8.10
2015,04,15,08,39,8.20
2015,04,15,08,40,8.20
2015,04,15,08,41,8.20
2015,04,15,08,42,8.20
2015,04,15,08,43,8.20
2015,04,15,08,44,8.30
2015,04,15,08,45,8.30
2015,04,15,08,46,8.40
2015,04,15,08,47,8.40
2015,04,15,08,48,8.40
2015,04,15,08,49,8.40
2015,04,15,08,50,8.30
2015,04,15,08,51,8.40
2015,04,15,08,52,8.40
2015,04,15,08,53,8.50
2015,04,15,08,54,8.50
2015,04,15,08,55,8.60
2015,04,15,08,56,8.60
2015,04,15,08,57,8.60
2015,04,15,08,58,8.70
2015,04,15,08,59,8.70
2015,04,15,09,00,8.80
2015,04,15,09,01,8.90
2015,04,15,09,02,8.90
2015,04,15,09,03,8.90
2015,04,15,09,04,8.90
2015,04,15,09,05,9.00
2015,04,15,09,06,9.00
2015,04,15,09,07,9.00
2015,04,15,09,08,9.10
2015,04,15,09,09,9.10
2015,04,15,09,10,9.20
2015,04,15,09,11,9.20
2015,04,15,09,12,9.30
2015,04,15,09,13,9.30
2015,04,15,09,14,9.40
2015,04,15,09,15,9.40
2015,04,15,09,16,9.50
2015,04,15,09,17,9.50
2015,04,15,09,18,9.50
2015,04,15,09,19,9.50
2015,04,15,09,20,9.50
2015,04,15,09,21,9.50
2015,04,15,09,22,9.50
2015,04,15,09,23,9.50
2015,04,15,09,24,9.60
2015,04,15,09,25,9.60
2015,04,15,09,26,9.60
2015,04,15,09,27,9.60
2015,04,15,09,28,9.60
2015,04,15,09,29,9.70
2015,04,15,09,30,9.70
2015,04,15,09,31,9.70
2015,04,15,09,32,9.70
2015,04,15,09,33,9.80
2015,04,15,09,34,9.80
2015,04,15,09,35,9.90
2015,04,15,09,36,9.90
2015,04,15,09,37,9.90
2015,04,15,09,38,9.90
2015,04,15,09,39,9.90
2015,04,15,09,40,9.90
2015,04,15,09,41,9.90
2015,04,15,09,42,9.90
2015,04,15,09,43,10.00
2015,04,15,09,44,10.10
2015,04,15,09,45,10.10
2015,04,15,09,46,10.10
2015,04,15,09,47,10.10
2015,04,15,09,48,10.10
2015,04,15,09,49,10.10
2015,04,15,09,50,10.10
2015,04,15,09,51,10.20
2015,04,15,09,52,10.20
2015,04,15,09,53,10.20
2015,04,15,09,54,10.20
2015,04,15,09,55,10.20
2015,04,15,09,56,10.20
2015,04,15,09,57,10.10
2015,04,15,09,58,10.10
2015,04,15,09,59,10.10
2015,04,15,10,00,10.10
2015,04,15,10,01,10.10
2015,04,15,10,02,10.20
2015,04,15,10,03,10.20
2015,04,15,10,04,10.20
2015,04,15,10,05,10.10
2015,04,15,10,06,10.20
2015,04,15,10,07,10.30
2015,04,15,10,08,10.40
2015,04,15,10,09,10.50
2015,04,15,10,10,10.60
2015,04,15,10,11,10.50
2015,04,15,10,12,10.40
2015,04,15,10,13,10.40
2015,04,15,10,14,10.40
2015,04,15,10,15,10.40
2015,04,15,10,16,10.40
2015,04,15,10,17,10.30
2015,04,15,10,18,10.30
2015,04,15,10,19,10.40
2015,04,15,10,20,10.30
2015,04,15,10,21,10.20
2015,04,15,10,22,10.10
2015,04,15,10,23,9.90
2015,04,15,10,24,9.90
2015,04,15,10,25,9.90
2015,04,15,10,26,10.00
2015,04,15,10,27,10.10
2015,04,15,10,28,10.00
2015,04,15,10,29,9.90
2015,04,15,10,30,9.80
2015,04,15,10,31,9.70
2015,04,15,10,32,9.70
2015,04,15,10,33,9.70
2015,04,15,10,34,9.70
2015,04,15,10,35,9.70
2015,04,15,10,36,9.60
2015,04,15,10,37,9.50
2015,04,15,10,38,9.40
2015,04,15,10,39,9.30
2015,04,15,10,40,9.30
2015,04,15,10,41,9.30
2015,04,15,10,42,9.30
2015,04,15,10,43,9.30
2015,04,15,10,44,9.30
2015,04,15,10,45,9.40
2015,04,15,10,46,9.40
2015,04,15,10,47,9.50
2015,04,15,10,48,9.60
2015,04,15,10,49,9.60
2015,04,15,10,50,9.60
2015,04,15,10,51,9.70
2015,04,15,10,52,9.80
2015,04,15,10,53,9.80
2015,04,15,10,54,9.80
2015,04,15,10,55,9.90
2015,04,15,10,56,9.90
2015,04,15,10,57,9.90
2015,04,15,10,58,10.00
2015,04,15,10,59,10.10
2015,04,15,11,00,10.10
2015,04,15,11,01,10.10
2015,04,15,11,02,10.10
2015,04,15,11,03,10.10
2015,04,15,11,04,10.10
2015,04,15,11,05,10.10
2015,04,15,11,06,10.10
2015,04,15,11,07,10.10
2015,04,15,11,08,10.10
2015,04,15,11,09,10.20
2015,04,15,11,10,10.20
2015,04,15,11,11,10.20
2015,04,15,11,12,10.30
2015,04,15,11,13,10.40
2015,04,15,11,14,10.50
2015,04,15,11,15,10.60
2015,04,15,11,16,10.80
2015,04,15,11,17,10.80
2015,04,15,11,18,10.90
2015,04,15,11,19,11.00
2015,04,15,11,20,11.10
2015,04,15,11,21,11.10
2015,04,15,11,22,11.10
2015,04,15,11,23,11.10
2015,04,15,11,24,11.10
2015,04,15,11,25,11.10
2015,04,15,11,26,11.00
2015,04,15,11,27,11.10
2015,04,15,11,28,11.10
2015,04,15,11,29,11.20
2015,04,15,11,30,11.30
2015,04,15,11,31,11.30
2015,04,15,11,32,11.40
2015,04,15,11,33,11.60
2015,04,15,11,34,11.70
2015,04,15,11,35,11.80
2015,04,15,11,36,11.80
2015,04,15,11,37,11.90
2015,04,15,11,38,12.00
2015,04,15,11,39,12.00
2015,04,15,11,40,12.00
2015,04,15,11,41,12.00
2015,04,15,11,42,11.90
2015,04,15,11,43,11.80
2015,04,15,11,44,11.80
2015,04,15,11,45,11.80
2015,04,15,11,46,11.80
2015,04,15,11,47,11.80
2015,04,15,11,48,11.90
2015,04,15,11,49,11.90
2015,04,15,11,50,11.90
2015,04,15,11,51,11.90
2015,04,15,11,52,11.80
2015,04,15,11,53,11.80
2015,04,15,11,54,11.90
2015,04,15,11,55,11.80
2015,04,15,11,56,11.80
2015,04,15,11,57,11.70
2015,04,15,11,58,11.70
2015,04,15,11,59,11.70
2015,04,15,12,00,11.60
2015,04,15,12,01,11.60
2015,04,15,12,02,11.50
2015,04,15,12,03,11.40
2015,04,15,12,04,11.40
2015,04,15,12,05,11.30
2015,04,15,12,06,11.20
2015,04,15,12,07,11.20
2015,04,15,12,08,11.10
2015,04,15,12,09,11.30
2015,04,15,12,10,11.30
2015,04,15,12,11,11.40
2015,04,15,12,12,11.40
2015,04,15,12,13,11.40
2015,04,15,12,14,11.60
2015,04,15,12,15,11.60
2015,04,15,12,16,11.70
2015,04,15,12,17,11.80
2015,04,15,12,18,11.80
2015,04,15,12,19,11.80
2015,04,15,12,20,11.80
2015,04,15,12,21,11.80
2015,04,15,12,22,11.80
2015,04,15,12,23,11.70
2015,04,15,12,24,11.80
2015,04,15,12,25,11.70
2015,04,15,12,26,11.60
2015,04,15,12,27,11.60
2015,04,15,12,28,11.60
2015,04,15,12,29,11.60
2015,04,15,12,30,11.60
2015,04,15,12,31,11.70
2015,04,15,12,32,11.70
2015,04,15,12,33,11.70
2015,04,15,12,34,11.60
2015,04,15,12,35,11.50
2015,04,15,12,36,11.40
2015,04,15,12,37,11.40
2015,04,15,12,38,11.40
2015,04,15,12,39,11.50
2015,04,15,12,40,11.60
2015,04,15,12,41,11.60
2015,04,15,12,42,11.60
2015,04,15,12,43,11.70
2015,04,15,12,44,11.80
2015,04,15,12,45,11.90
2015,04,15,12,46,12.00
2015,04,15,12,47,12.10
2015,04,15,12,48,12.30
2015,04,15,12,49,12.30
2015,04,15,12,50,12.30
2015,04,15,12,51,12.30
2015,04,15,12,52,12.30
2015,04,15,12,53,12.30
2015,04,15,12,54,12.30
2015,04,15,12,55,12.30
2015,04,15,12,56,12.20
2015,04,15,12,57,11.90
2015,04,15,12,58,11.80
2015,04,15,12,59,11.70
2015,04,15,13,00,11.70
2015,04,15,13,01,11.70
2015,04,15,13,02,11.80
2015,04,15,13,03,11.80
2015,04,15,13,04,11.90
2015,04,15,13,05,12.00
2015,04,15,13,06,12.00
2015,04,15,13,07,12.00
2015,04,15,13,08,12.00
2015,04,15,13,09,12.10
2015,04,15,13,10,12.10
2015,04,15,13,11,12.20
2015,04,15,13,12,12.10
2015,04,15,13,13,12.10
2015,04,15,13,14,12.00
2015,04,15,13,15,11.90
2015,04,15,13,16,11.80
2015,04,15,13,17,11.80
2015,04,15,13,18,11.80
2015,04,15,13,19,11.80
2015,04,15,13,20,11.80
2015,04,15,13,21,11.80
2015,04,15,13,22,11.80
2015,04,15,13,23,11.80
2015,04,15,13,24,11.80
2015,04,15,13,25,11.80
2015,04,15,13,26,11.80
2015,04,15,13,27,11.80
2015,04,15,13,28,11.60
2015,04,15,13,29,11.60
2015,04,15,13,30,11.70
2015,04,15,13,31,11.70
2015,04,15,13,32,11.60
2015,04,15,13,33,11.60
2015,04,15,13,34,11.50
2015,04,15,13,35,11.40
2015,04,15,13,36,11.40
2015,04,15,13,37,11.30
2015,04,15,13,38,11.40
2015,04,15,13,39,11.60
2015,04,15,13,40,11.70
2015,04,15,13,41,11.80
2015,04,15,13,42,11.80
2015,04,15,13,43,11.90
2015,04,15,13,44,12.00
2015,04,15,13,45,12.00
2015,04,15,13,46,11.90
2015,04,15,13,47,11.90
2015,04,15,13,48,11.90
2015,04,15,13,49,11.80
2015,04,15,13,50,11.80
2015,04,15,13,51,11.80
2015,04,15,13,52,11.70
2015,04,15,13,53,11.70
2015,04,15,13,54,11.70
2015,04,15,13,55,11.80
2015,04,15,13,56,11.60
2015,04,15,13,57,11.50
2015,04,15,13,58,11.40
2015,04,15,13,59,11.40
2015,04,15,14,00,11.50
2015,04,15,14,01,11.60
2015,04,15,14,02,11.80
2015,04,15,14,03,11.80
2015,04,15,14,04,11.80
2015,04,15,14,05,11.80
2015,04,15,14,06,11.80
2015,04,15,14,07,11.90
2015,04,15,14,08,11.80
2015,04,15,14,09,11.80
2015,04,15,14,10,11.80
2015,04,15,14,11,11.70
2015,04,15,14,12,11.70
2015,04,15,14,13,11.70
2015,04,15,14,14,11.80
2015,04,15,14,15,11.80
2015,04,15,14,16,11.70
2015,04,15,14,17,11.60
2015,04,15,14,18,11.50
2015,04,15,14,19,11.40
2015,04,15,14,20,11.40
2015,04,15,14,21,11.40
2015,04,15,14,22,11.30
2015,04,15,14,23,11.20
2015,04,15,14,24,11.10
2015,04,15,14,25,11.10
2015,04,15,14,26,11.20
2015,04,15,14,27,11.30
2015,04,15,14,28,11.40
2015,04,15,14,29,11.30
2015,04,15,14,30,11.30
2015,04,15,14,31,11.20
2015,04,15,14,32,11.20
2015,04,15,14,33,11.20
2015,04,15,14,34,11.40
2015,04,15,14,35,11.40
2015,04,15,14,36,11.40
2015,04,15,14,37,11.40
2015,04,15,14,38,11.40
2015,04,15,14,39,11.40
2015,04,15,14,40,11.30
2015,04,15,14,41,11.30
2015,04,15,14,42,11.40
2015,04,15,14,43,11.60
2015,04,15,14,44,11.60
2015,04,15,14,45,11.60
2015,04,15,14,46,11.50
2015,04,15,14,47,11.40
2015,04,15,14,48,11.40
2015,04,15,14,49,11.30
2015,04,15,14,50,11.30
2015,04,15,14,51,11.30
2015,04,15,14,52,11.40
2015,04,15,14,53,11.30
2015,04,15,14,54,11.20
2015,04,15,14,55,11.20
2015,04,15,14,56,11.20
2015,04,15,14,57,11.20
2015,04,15,14,58,11.30
2015,04,15,14,59,11.40
2015,04,15,15,00,11.50
2015,04,15,15,01,11.60
2015,04,15,15,02,11.60
2015,04,15,15,03,11.60
2015,04,15,15,04,11.60
2015,04,15,15,05,11.60
2015,04,15,15,06,11.60
2015,04,15,15,07,11.60
2015,04,15,15,08,11.60
2015,04,15,15,09,11.60
2015,04,15,15,10,11.60
2015,04,15,15,11,11.60
2015,04,15,15,12,11.60
2015,04,15,15,13,11.60
2015,04,15,15,14,11.50
2015,04,15,15,15,11.40
2015,04,15,15,16,11.30
2015,04,15,15,17,11.20
2015,04,15,15,25,11.30
2015,04,15,15,26,11.30
2015,04,15,15,27,11.40
2015,04,15,15,28,11.40
2015,04,15,15,29,11.40
2015,04,15,15,30,11.40
2015,04,15,15,31,11.40
2015,04,15,15,32,11.40
2015,04,15,15,33,11.40
2015,04,15,15,34,11.30
2015,04,15,15,35,11.40
2015,04,15,15,36,11.40
2015,04,15,15,37,11.50
2015,04,15,15,38,11.50
2015,04,15,15,39,11.40
2015,04,15,15,40,11.40
2015,04,15,15,41,11.30
2015,04,15,15,42,11.20
2015,04,15,15,43,11.10
2015,04,15,15,44,11.10
2015,04,15,15,45,11.10
2015,04,15,15,46,11.20
2015,04,15,15,47,11.30
2015,04,15,15,48,11.30
2015,04,15,15,49,11.20
2015,04,15,15,50,11.20
2015,04,15,15,51,11.10
2015,04,15,15,52,11.10
2015,04,15,15,53,11.10
2015,04,15,15,54,11.10
2015,04,15,15,55,11.10
2015,04,15,15,56,11.10
2015,04,15,15,57,11.20
2015,04,15,15,58,11.30
2015,04,15,15,59,11.30
2015,04,15,16,00,11.40
2015,04,15,16,01,11.40
2015,04,15,16,02,11.40
2015,04,15,16,03,11.40
2015,04,15,16,04,11.40
2015,04,15,16,05,11.40
2015,04,15,16,06,11.40
2015,04,15,16,07,11.50
2015,04,15,16,08,11.60
2015,04,15,16,09,11.50
2015,04,15,16,10,11.40
2015,04,15,16,11,11.40
2015,04,15,16,12,11.40
2015,04,15,16,13,11.40
2015,04,15,16,14,11.40
2015,04,15,16,15,11.40
2015,04,15,16,16,11.40
2015,04,15,16,17,11.40
2015,04,15,16,18,11.40
2015,04,15,16,19,11.40
2015,04,15,16,20,11.40
2015,04,15,16,21,11.40
2015,04,15,16,22,11.40
2015,04,15,16,23,11.50
2015,04,15,16,24,11.40
2015,04,15,16,25,11.50
2015,04,15,16,26,11.60
2015,04,15,16,27,11.60
2015,04,15,16,28,11.60
2015,04,15,16,29,11.50
2015,04,15,16,30,11.40
2015,04,15,16,31,11.40
2015,04,15,16,32,11.40
2015,04,15,16,33,11.40
2015,04,15,16,34,11.40
2015,04,15,16,35,11.40
2015,04,15,16,36,11.40
2015,04,15,16,37,11.40
2015,04,15,16,38,11.40
2015,04,15,16,39,11.40
2015,04,15,16,40,11.40
2015,04,15,16,41,11.30
2015,04,15,16,42,11.40
2015,04,15,16,43,11.40
2015,04,15,16,44,11.60
2015,04,15,16,45,11.60
2015,04,15,16,46,11.70
2015,04,15,16,47,11.70
2015,04,15,16,48,11.70
2015,04,15,16,49,11.80
2015,04,15,16,50,11.80
2015,04,15,16,51,11.90
2015,04,15,16,52,12.00
2015,04,15,16,53,12.20
2015,04,15,16,54,12.30
2015,04,15,16,55,12.30
2015,04,15,16,56,12.30
2015,04,15,16,57,12.30
2015,04,15,16,58,12.30
2015,04,15,16,59,12.30
2015,04,15,17,00,12.30
2015,04,15,17,01,12.30
2015,04,15,17,02,12.20
2015,04,15,17,03,12.10
2015,04,15,17,04,12.20
2015,04,15,17,05,12.30
2015,04,15,17,06,12.20
2015,04,15,17,07,12.20
2015,04,15,17,08,12.30
2015,04,15,17,09,12.20
2015,04,15,17,10,12.10
2015,04,15,17,11,12.10
2015,04,15,17,12,12.00
2015,04,15,17,13,11.90
2015,04,15,17,14,11.80
2015,04,15,17,15,11.60
2015,04,15,17,16,11.50
2015,04,15,17,17,11.40
2015,04,15,17,18,11.50
2015,04,15,17,19,11.50
2015,04,15,17,20,11.40
2015,04,15,17,21,11.40
2015,04,15,17,22,11.40
2015,04,15,17,23,11.50
2015,04,15,17,24,11.60
2015,04,15,17,25,11.40
2015,04,15,17,26,11.40
2015,04,15,17,27,11.30
2015,04,15,17,28,11.40
2015,04,15,17,29,11.40
2015,04,15,17,30,11.40
2015,04,15,17,31,11.50
2015,04,15,17,32,11.60
2015,04,15,17,33,11.60
2015,04,15,17,34,11.60
2015,04,15,17,35,11.60
2015,04,15,17,36,11.50
2015,04,15,17,37,11.40
2015,04,15,17,38,11.40
2015,04,15,17,39,11.40
2015,04,15,17,40,11.40
2015,04,15,17,41,11.40
2015,04,15,17,42,11.30
2015,04,15,17,43,11.30
2015,04,15,17,44,11.30
2015,04,15,17,45,11.40
2015,04,15,17,46,11.40
2015,04,15,17,47,11.60
2015,04,15,17,48,11.50
2015,04,15,17,49,11.40
2015,04,15,17,50,11.40
2015,04,15,17,51,11.40
2015,04,15,17,52,11.40
2015,04,15,17,53,11.40